TimeEDT,TemperatureF,Dew PointF,Humidity,Sea Level PressureIn,VisibilityMPH,Wind Direction,Wind SpeedMPH,Gust SpeedMPH,PrecipitationIn,Events,Conditions,WindDirDegrees,DateUTC
12:31 AM,69.8,68.0,94,29.86,9.0,WSW,3.5,-,N/A,,Partly Cloudy,250,2013-08-23 04:31:00
12:56 AM,69.1,68.0,96,29.86,8.0,West,4.6,-,N/A,,Scattered Clouds,280,2013-08-23 04:56:00
1:09 AM,69.8,69.8,100,29.86,7.0,Calm,Calm,-,N/A,,Mostly Cloudy,0,2013-08-23 05:09:00
1:56 AM,70.0,69.1,97,29.85,8.0,WSW,5.8,-,N/A,,Scattered Clouds,250,2013-08-23 05:56:00
2:56 AM,70.0,69.1,97,29.85,7.0,Calm,Calm,-,N/A,,Mostly Cloudy,0,2013-08-23 06:56:00
3:56 AM,70.0,68.0,93,29.84,5.0,WNW,3.5,-,N/A,,Scattered Clouds,290,2013-08-23 07:56:00
4:56 AM,70.0,69.1,97,29.85,6.0,Calm,Calm,-,N/A,,Scattered Clouds,0,2013-08-23 08:56:00
5:56 AM,70.0,66.9,90,29.86,7.0,NNW,3.5,-,N/A,,Overcast,340,2013-08-23 09:56:00
7:56 AM,73.0,64.9,76,29.91,8.0,NNW,9.2,-,N/A,,Clear,340,2013-08-23 11:56:00
8:56 AM,73.0,63.0,71,29.93,9.0,NNW,9.2,-,N/A,,Clear,340,2013-08-23 12:56:00
9:56 AM,73.0,62.1,68,29.94,9.0,North,11.5,20.7,N/A,,Clear,360,2013-08-23 13:56:00
10:56 AM,77.0,63.0,62,29.94,9.0,NNW,10.4,-,N/A,,Clear,330,2013-08-23 14:56:00
11:56 AM,80.1,57.9,47,29.93,10.0,North,12.7,24.2,N/A,,Clear,360,2013-08-23 15:56:00
12:56 PM,82.0,59.0,45,29.94,10.0,NNE,10.4,-,N/A,,Clear,20,2013-08-23 16:56:00
1:56 PM,82.0,57.9,44,29.95,10.0,NNW,10.4,-,N/A,,Clear,340,2013-08-23 17:56:00
2:56 PM,82.0,54.0,38,29.96,10.0,North,5.8,-,N/A,,Clear,10,2013-08-23 18:56:00
3:56 PM,75.0,63.0,66,29.96,9.0,SSE,10.4,-,N/A,,Mostly Cloudy,160,2013-08-23 19:56:00
4:56 PM,75.0,64.0,69,29.97,8.0,SE,8.1,-,N/A,,Mostly Cloudy,130,2013-08-23 20:56:00
5:56 PM,73.9,61.0,64,29.99,10.0,SE,6.9,-,N/A,,Scattered Clouds,130,2013-08-23 21:56:00
6:56 PM,71.1,62.1,73,30.01,10.0,SE,3.5,-,N/A,,Mostly Cloudy,140,2013-08-23 22:56:00
7:56 PM,70.0,62.1,76,30.02,10.0,Calm,Calm,-,N/A,,Partly Cloudy,0,2013-08-23 23:56:00
8:56 PM,68.0,62.1,81,30.06,10.0,Calm,Calm,-,N/A,,Scattered Clouds,0,2013-08-24 00:56:00
9:56 PM,64.9,61.0,87,30.07,10.0,Calm,Calm,-,N/A,,Partly Cloudy,0,2013-08-24 01:56:00
10:56 PM,64.0,60.1,87,30.09,10.0,Calm,Calm,-,N/A,,Clear,0,2013-08-24 02:56:00
11:56 PM,62.1,60.1,93,30.11,10.0,Calm,Calm,-,N/A,,Clear,0,2013-08-24 03:56:00